FW7554 Weather Reports


time (UTC)temp
C
wind
direction
speed
KPH
gust
KPH
rain 1hr
cm
rain 24hr
cm
rain mn
cm
humidity
%
barometer
mb
20260507231334 12 21 6.4 9.7 0.00 0.00 0.00 58 1012.3
20260507230830 11 316 3.2 4.8 0.00 0.00 0.00 59 1012.4
20260507230327 11 336 3.2 4.8 0.00 0.00 0.00 58 1012.0
20260507225827 12 334 4.8 8.0 0.00 0.00 0.00 57 1012.1
20260507225323 12 312 1.6 3.2 0.00 0.00 0.00 57 1012.1
20260507224820 12 8 0.0 0.0 0.00 0.00 0.00 58 1012.0
20260507224317 12 322 3.2 4.8 0.00 0.00 0.00 55 1011.9
20260507223813 12 35 0.0 3.2 0.00 0.00 0.00 55 1011.9
20260507223309 12 328 1.6 3.2 0.00 0.00 0.00 53 1011.8
20260507222807 12 325 3.2 3.2 0.00 0.00 0.00 54 1011.9
20260507222305 12 324 3.2 3.2 0.00 0.00 0.00 53 1011.8
20260507221800 12 330 3.2 4.8 0.00 0.00 0.00 55 1011.7
20260507221256 12 338 8.0 12.9 0.00 0.00 0.00 53 1011.9
20260507220752 12 336 4.8 8.0 0.00 0.00 0.00 56 1011.6
20260507220251 12 344 3.2 9.7 0.00 0.00 0.00 56 1011.8
20260507215747 12 349 1.6 3.2 0.00 0.00 0.00 52 1011.7
20260507215244 12 334 3.2 8.0 0.00 0.00 0.00 56 1011.5
20260507214741 13 338 9.7 12.9 0.00 0.00 0.00 50 1011.6
20260507214238 13 333 3.2 4.8 0.00 0.00 0.00 50 1011.4
20260507213733 13 338 4.8 8.0 0.00 0.00 0.00 50 1011.4
20260507213231 13 304 1.6 3.2 0.00 0.00 0.00 48 1011.2
20260507212727 13 313 6.4 9.7 0.00 0.00 0.00 51 1011.5
20260507212224 13 331 1.6 4.8 0.00 0.00 0.00 50 1011.5
20260507211720 13 326 3.2 3.2 0.00 0.00 0.00 48 1011.5
20260507211216 13 316 1.6 3.2 0.00 0.00 0.00 49 1011.4
20260507210714 13 331 6.4 8.0 0.00 0.00 0.00 50 1011.3
20260507210211 13 348 3.2 4.8 0.00 0.00 0.00 47 1011.2
20260507205707 13 358 6.4 8.0 0.00 0.00 0.00 50 1011.1
20260507205204 13 331 8.0 14.5 0.00 0.00 0.00 45 1011.3
20260507204700 13 316 1.6 3.2 0.00 0.00 0.00 50 1011.6
20260507204158 14 326 4.8 4.8 0.00 0.00 0.00 48 1011.4
20260507203656 15 300 8.0 12.9 0.00 0.00 0.00 45 1011.2
20260507203153 14 330 3.2 8.0 0.00 0.00 0.00 44 1011.0
20260507202648 13 314 3.2 4.8 0.00 0.00 0.00 45 1011.3
20260507202144 13 347 4.8 8.0 0.00 0.00 0.00 49 1011.2
20260507201639 13 336 6.4 8.0 0.00 0.00 0.00 47 1011.5
20260507201137 14 8 1.6 3.2 0.00 0.00 0.00 46 1011.3
20260507200633 13 331 3.2 4.8 0.00 0.00 0.00 50 1011.4
20260507200129 13 308 3.2 4.8 0.00 0.00 0.00 46 1011.6
20260507195626 14 320 4.8 8.0 0.00 0.00 0.00 46 1011.6
20260507195123 14 332 4.8 8.0 0.00 0.00 0.00 46 1011.4
20260507194620 15 314 1.6 4.8 0.00 0.00 0.00 47 1011.5
20260507194115 16 356 4.8 9.7 0.00 0.00 0.00 47 1011.7
20260507193613 16 300 1.6 3.2 0.00 0.00 0.00 43 1011.6
20260507193110 15 322 12.9 14.5 0.00 0.00 0.00 44 1011.6
20260507192606 15 346 9.7 9.7 0.00 0.00 0.00 47 1011.6
20260507192103 15 306 3.2 4.8 0.00 0.00 0.00 46 1011.6
20260507191558 15 302 6.4 8.0 0.00 0.00 0.00 47 1011.7
20260507191055 13 347 4.8 8.0 0.00 0.00 0.00 50 1011.7
20260507190552 13 322 3.2 3.2 0.00 0.00 0.00 52 1011.6
20260507190051 13 328 3.2 3.2 0.00 0.00 0.00 48 1011.9
20260507185549 14 9 19.3 22.5 0.00 0.00 0.00 44 1011.7
20260507185045 15 344 3.2 4.8 0.00 0.00 0.00 44 1011.8
20260507184544 15 342 1.6 3.2 0.00 0.00 0.00 45 1011.8
20260507184041 14 316 9.7 17.7 0.00 0.00 0.00 49 1012.0
20260507183537 13 52 3.2 4.8 0.00 0.00 0.00 47 1011.9
20260507183034 13 348 0.0 0.0 0.00 0.00 0.00 49 1012.0
20260507182531 14 348 6.4 9.7 0.00 0.00 0.00 49 1012.0
20260507182026 15 293 6.4 8.0 0.00 0.00 0.00 48 1012.2
20260507181524 15 102 1.6 4.8 0.00 0.00 0.00 49 1011.9
20260507181020 15 326 4.8 8.0 0.00 0.00 0.00 47 1012.1
20260507180516 16 255 3.2 8.0 0.00 0.00 0.00 47 1011.9
20260507180013 16 188 17.7 22.5 0.00 0.00 0.00 48 1011.9
20260507175509 15 330 4.8 12.9 0.00 0.00 0.00 51 1012.1
20260507175007 14 249 3.2 4.8 0.00 0.00 0.00 57 1012.2
20260507174504 13 337 8.0 12.9 0.00 0.00 0.00 55 1012.2
20260507174002 13 348 1.6 3.2 0.00 0.00 0.00 57 1012.3
20260507173458 13 349 6.4 8.0 0.00 0.00 0.00 56 1012.2
20260507172955 14 189 3.2 4.8 0.00 0.00 0.00 54 1012.6
20260507172452 13 13 4.8 8.0 0.00 0.00 0.00 56 1012.6
20260507171949 12 303 3.2 4.8 0.00 0.00 0.00 60 1012.6
20260507171444 13 304 0.0 3.2 0.00 0.00 0.00 53 1012.4
20260507170942 13 237 3.2 4.8 0.00 0.00 0.00 53 1012.7
20260507170438 13 321 0.0 0.0 0.00 0.00 0.00 52 1012.6
20260507165935 15 260 6.4 9.7 0.00 0.00 0.00 57 1012.7
20260507165431 15 172 4.8 9.7 0.00 0.00 0.00 52 1012.7
20260507164926 15 317 1.6 3.2 0.00 0.00 0.00 53 1012.7
20260507164424 14 322 1.6 3.2 0.00 0.00 0.00 63 1012.6
20260507163920 12 356 1.6 4.8 0.00 0.00 0.00 58 1012.7
20260507163418 13 340 0.0 0.0 0.00 0.00 0.00 55 1013.2
20260507162915 13 332 3.2 4.8 0.00 0.00 0.00 57 1012.9
20260507162410 12 317 1.6 3.2 0.00 0.00 0.00 57 1012.9
20260507161908 13 253 8.0 9.7 0.00 0.00 0.00 58 1013.3
20260507161403 13 330 1.6 3.2 0.00 0.00 0.00 55 1012.8
20260507160901 12 340 1.6 3.2 0.00 0.00 0.00 57 1013.1
20260507160356 13 349 1.6 4.8 0.00 0.00 0.00 60 1013.3
20260507155852 13 347 3.2 4.8 0.00 0.00 0.00 64 1012.9
20260507155348 12 348 0.0 3.2 0.00 0.00 0.00 57 1013.2
20260507154845 12 350 1.6 3.2 0.00 0.00 0.00 61 1013.3
20260507154343 12 327 3.2 3.2 0.00 0.00 0.00 57 1013.3
20260507153840 12 312 4.8 4.8 0.00 0.00 0.00 59 1013.5
20260507153336 12 310 3.2 4.8 0.00 0.00 0.00 61 1013.4
20260507152833 13 169 6.4 9.7 0.00 0.00 0.00 63 1013.7
20260507152329 12 227 3.2 4.8 0.00 0.00 0.00 61 1013.5
20260507151825 13 308 3.2 4.8 0.00 0.00 0.00 58 1013.4
20260507151321 13 13 3.2 3.2 0.00 0.00 0.00 57 1013.5
20260507150818 12 331 1.6 3.2 0.00 0.00 0.00 55 1013.6
20260507150315 12 310 3.2 3.2 0.00 0.00 0.00 59 1013.8
20260507145811 11 309 1.6 3.2 0.00 0.00 0.00 65 1013.8
20260507145308 11 309 3.2 4.8 0.00 0.00 0.00 63 1014.0
20260507144805 12 32 1.6 3.2 0.00 0.00 0.00 62 1013.9
20260507144302 12 270 3.2 3.2 0.00 0.00 0.00 62 1014.0
20260507143758 12 317 4.8 8.0 0.00 0.00 0.00 64 1014.1
20260507143256 11 284 4.8 4.8 0.00 0.00 0.00 67 1014.1
20260507142752 11 343 1.6 3.2 0.00 0.00 0.00 64 1014.3
20260507142248 11 331 4.8 4.8 0.00 0.00 0.00 66 1014.3
20260507141745 11 342 1.6 3.2 0.00 0.00 0.00 65 1014.3
20260507141242 11 287 3.2 4.8 0.00 0.00 0.00 68 1014.4
20260507140738 11 280 6.4 8.0 0.00 0.00 0.00 65 1014.6
20260507140236 11 256 0.0 3.2 0.00 0.00 0.00 72 1014.3
20260507135733 11 330 0.0 3.2 0.00 0.00 0.00 69 1014.6
20260507135230 10 356 0.0 3.2 0.00 0.00 0.00 68 1014.5
20260507134726 10 322 1.6 3.2 0.00 0.00 0.00 72 1014.5
20260507134222 10 321 3.2 4.8 0.00 0.00 0.00 72 1014.7
20260507133719 10 134 4.8 8.0 0.00 0.00 0.00 72 1014.7
20260507133215 10 340 0.0 0.0 0.00 0.00 0.00 75 1014.6
20260507132713 10 302 3.2 3.2 0.00 0.00 0.00 72 1014.4
20260507132209 10 336 0.0 3.2 0.00 0.00 0.00 76 1014.5
20260507131706 10 329 1.6 3.2 0.00 0.00 0.00 77 1014.8
20260507131204 9 337 0.0 3.2 0.00 0.00 0.00 78 1014.7
20260507130700 8 138 3.2 4.8 0.00 0.00 0.00 79 1014.7
20260507130158 8 306 1.6 3.2 0.00 0.00 0.00 78 1014.6
20260507125657 8 338 0.0 0.0 0.00 0.00 0.00 80 1014.7
20260507125154 8 332 1.6 3.2 0.00 0.00 0.00 82 1014.7
20260507124650 8 334 1.6 3.2 0.00 0.00 0.00 83 1014.6
20260507124147 8 350 0.0 3.2 0.00 0.00 0.00 82 1014.8
20260507123646 8 203 1.6 3.2 0.00 0.00 0.00 83 1014.7
20260507123143 7 231 6.4 8.0 0.00 0.00 0.00 84 1014.7
20260507122638 7 200 4.8 8.0 0.00 0.00 0.00 87 1014.6
20260507122134 7 210 9.7 9.7 0.00 0.00 0.00 89 1014.4
20260507121630 6 333 0.0 3.2 0.00 0.00 0.00 90 1014.6
20260507121126 6 354 0.0 0.0 0.00 0.00 0.00 93 1014.7
20260507120622 5 356 0.0 0.0 0.00 0.00 0.00 96 1014.8
20260507120119 5 340 0.0 0.0 0.00 0.00 0.00 98 1014.6
20260507115615 4 336 0.0 0.0 0.00 0.00 0.00 99 1014.7
20260507115111 3 330 0.0 0.0 0.00 0.00 0.00 99 1014.7
20260507114607 3 296 3.2 3.2 0.00 0.00 0.00 99 1014.7
20260507114104 3 307 1.6 3.2 0.00 0.00 0.00 99 1014.4
20260507113602 3 60 3.2 3.2 0.00 0.00 0.00 99 1014.5
20260507113059 2 284 1.6 3.2 0.00 0.00 0.00 99 1014.6
20260507112557 2 61 1.6 3.2 0.00 0.00 0.00 98 1014.7
20260507112053 3 9 1.6 3.2 0.00 0.00 0.00 97 1014.6
20260507111550 3 11 0.0 0.0 0.00 0.00 0.00 98 1014.5
20260507111047 3 20 1.6 3.2 0.00 0.00 0.00 98 1014.6
20260507110543 2 358 0.0 0.0 0.00 0.00 0.00 99 1014.4
20260507110040 2 353 0.0 0.0 0.00 0.00 0.00 99 1014.3
20260507105537 2 0 0.0 0.0 0.00 0.00 0.00 99 1014.5
20260507105032 2 1 0.0 0.0 0.00 0.00 0.00 99 1014.3
20260507104530 2 2 0.0 0.0 0.00 0.00 0.00 99 1014.3
20260507104026 2 3 0.0 0.0 0.00 0.00 0.00 99 1014.2
20260507103523 1 351 0.0 0.0 0.00 0.00 0.00 99 1014.4
20260507103019 1 342 0.0 0.0 0.00 0.00 0.00 99 1014.3
20260507102516 1 346 0.0 0.0 0.00 0.00 0.00 99 1014.1
20260507102012 1 353 0.0 0.0 0.00 0.00 0.00 99 1014.1
20260507101508 1 354 0.0 0.0 0.00 0.00 0.00 99 1014.3
20260507101004 1 355 0.0 0.0 0.00 0.00 0.00 99 1014.3
20260507100456 1 354 0.0 0.0 0.00 0.00 0.00 99 1014.3
20260507095954 1 354 0.0 0.0 0.00 0.00 0.00 99 1014.1
20260507095451 1 354 0.0 0.0 0.00 0.00 0.00 99 1014.3
20260507094948 1 354 0.0 0.0 0.00 0.00 0.00 99 1014.3
20260507094444 1 354 0.0 0.0 0.00 0.00 0.00 99 1014.4
20260507093941 1 354 0.0 0.0 0.00 0.00 0.00 99 1014.2
20260507093439 1 355 0.0 0.0 0.00 0.00 0.00 99 1014.2
20260507092937 1 354 0.0 0.0 0.00 0.00 0.00 99 1014.1
20260507092433 1 354 0.0 0.0 0.00 0.00 0.00 99 1014.4
20260507091930 1 354 0.0 0.0 0.00 0.00 0.00 99 1014.3
20260507091426 1 354 0.0 0.0 0.00 0.00 0.00 99 1014.3
20260507090922 1 355 0.0 0.0 0.00 0.00 0.00 99 1014.3
20260507090419 1 355 0.0 0.0 0.00 0.00 0.00 99 1014.3
20260507085915 1 355 0.0 0.0 0.00 0.00 0.00 99 1014.2
20260507085412 1 346 0.0 0.0 0.00 0.00 0.00 99 1014.3
20260507084910 1 346 0.0 0.0 0.00 0.00 0.00 99 1014.2
20260507084406 2 346 0.0 0.0 0.00 0.00 0.00 99 1014.5
20260507083903 2 346 1.6 3.2 0.00 0.00 0.00 99 1014.7
20260507083359 2 346 0.0 0.0 0.00 0.00 0.00 99 1014.4
20260507082856 2 346 0.0 0.0 0.00 0.00 0.00 99 1014.4
20260507082351 2 346 0.0 0.0 0.00 0.00 0.00 99 1014.3
20260507081849 2 346 0.0 0.0 0.00 0.00 0.00 99 1014.3
20260507081345 2 346 0.0 0.0 0.00 0.00 0.00 99 1014.4
20260507080842 2 346 0.0 0.0 0.00 0.00 0.00 99 1014.4
20260507080338 2 346 0.0 0.0 0.00 0.00 0.00 99 1014.3
20260507075833 2 346 0.0 0.0 0.00 0.00 0.00 99 1014.5
20260507075330 2 346 0.0 0.0 0.00 0.00 0.00 99 1014.5
20260507074826 2 339 1.6 3.2 0.00 0.00 0.00 99 1014.5
20260507074324 2 336 1.6 3.2 0.00 0.00 0.00 99 1014.5
20260507073821 3 351 1.6 3.2 0.00 0.00 0.00 99 1014.6
20260507073318 3 351 0.0 0.0 0.00 0.00 0.00 98 1014.5
20260507072815 3 351 0.0 0.0 0.00 0.00 0.00 98 1014.5
20260507072312 3 351 0.0 0.0 0.00 0.00 0.00 98 1014.6
20260507071809 3 351 0.0 0.0 0.00 0.00 0.00 98 1014.6
20260507071306 3 351 0.0 0.0 0.00 0.00 0.00 97 1014.5
20260507070803 3 351 0.0 0.0 0.00 0.00 0.00 97 1014.7
20260507070300 3 350 0.0 0.0 0.00 0.00 0.00 96 1014.5
20260507065756 3 351 0.0 3.2 0.00 0.00 0.00 96 1014.8
20260507065253 4 350 0.0 0.0 0.00 0.00 0.00 95 1014.6
20260507064750 4 350 0.0 3.2 0.00 0.00 0.00 94 1014.8
20260507064249 5 350 0.0 0.0 0.00 0.00 0.00 93 1014.7
20260507063746 5 350 0.0 3.2 0.00 0.00 0.00 93 1014.6
20260507063243 5 350 1.6 3.2 0.00 0.00 0.00 92 1014.8
20260507062740 5 350 0.0 0.0 0.00 0.00 0.00 92 1014.8
20260507062237 5 350 0.0 0.0 0.00 0.00 0.00 92 1014.7
20260507061735 5 350 0.0 0.0 0.00 0.00 0.00 92 1015.0
20260507061233 5 350 0.0 0.0 0.00 0.00 0.00 92 1014.7
20260507060731 5 350 0.0 0.0 0.00 0.00 0.00 93 1014.9
20260507060227 5 350 0.0 0.0 0.00 0.00 0.00 92 1015.0
20260507055723 5 350 0.0 0.0 0.00 0.00 0.00 91 1014.9
20260507055219 6 350 0.0 0.0 0.00 0.00 0.00 88 1015.1
20260507054715 6 350 0.0 0.0 0.00 0.00 0.00 85 1014.8
20260507054212 6 350 0.0 0.0 0.00 0.00 0.00 85 1015.0
20260507053710 6 350 0.0 0.0 0.00 0.00 0.00 85 1015.0
20260507053208 6 350 0.0 0.0 0.00 0.00 0.00 85 1014.9
20260507052706 6 350 0.0 0.0 0.00 0.00 0.00 85 1015.0
20260507052202 6 350 0.0 0.0 0.00 0.00 0.00 84 1015.3
20260507051700 6 350 0.0 0.0 0.00 0.00 0.00 85 1015.5
20260507051156 6 350 0.0 0.0 0.00 0.00 0.00 85 1015.4
20260507050653 6 350 0.0 0.0 0.00 0.00 0.00 85 1015.3
20260507050150 6 350 0.0 0.0 0.00 0.00 0.00 83 1015.3
20260507045647 6 350 0.0 0.0 0.00 0.00 0.00 83 1015.3
20260507045143 6 350 0.0 3.2 0.00 0.00 0.00 84 1015.5
20260507044640 6 350 0.0 0.0 0.00 0.00 0.00 82 1015.5
20260507044137 6 350 0.0 0.0 0.00 0.00 0.00 81 1015.4
20260507043633 6 350 0.0 0.0 0.00 0.00 0.00 82 1015.7
20260507043130 6 350 0.0 0.0 0.00 0.00 0.00 81 1015.5
20260507042627 7 350 0.0 0.0 0.00 0.00 0.00 82 1015.5
20260507042121 7 350 1.6 3.2 0.00 0.00 0.00 82 1015.5
20260507041619 7 350 1.6 3.2 0.00 0.00 0.00 80 1015.4
20260507041115 7 350 0.0 0.0 0.00 0.00 0.00 81 1015.3
20260507040612 7 350 1.6 3.2 0.00 0.00 0.00 81 1015.5
20260507035559 7 351 1.6 3.2 0.00 1.35 1.35 79 1015.4
20260507035055 7 341 0.0 0.0 0.00 1.35 1.35 79 1015.5
20260507034552 7 341 0.0 0.0 0.00 1.35 1.35 80 1015.3
20260507034050 7 341 0.0 0.0 0.00 1.35 1.35 79 1015.2
20260507033548 7 354 0.0 3.2 0.00 1.35 1.35 79 1015.1
20260507033045 7 354 1.6 3.2 0.00 1.35 1.35 78 1015.2
20260507032542 7 1 1.6 3.2 0.00 1.35 1.35 79 1015.1
20260507032038 7 2 1.6 3.2 0.00 1.35 1.35 80 1015.2
20260507031535 7 2 0.0 0.0 0.00 1.35 1.35 81 1015.4
20260507031032 7 2 0.0 0.0 0.00 1.35 1.35 81 1015.3
20260507030528 7 2 0.0 0.0 0.00 1.35 1.35 81 1015.0
20260507030026 7 2 1.6 3.2 0.00 1.35 1.35 80 1015.1
20260507025523 7 2 0.0 0.0 0.00 1.35 1.35 82 1015.2
20260507025021 7 2 0.0 0.0 0.00 1.35 1.35 82 1015.1
20260507024518 6 2 0.0 0.0 0.00 1.35 1.35 82 1015.1
20260507024014 6 2 0.0 0.0 0.00 1.35 1.35 81 1015.0
20260507023510 6 2 0.0 0.0 0.00 1.35 1.35 83 1014.7
20260507023009 6 2 0.0 0.0 0.00 1.35 1.35 81 1014.8
20260507022505 6 2 0.0 0.0 0.00 1.35 1.35 81 1014.8
20260507022000 6 2 0.0 0.0 0.00 1.35 1.35 79 1014.8
20260507021455 6 2 0.0 0.0 0.00 1.35 1.35 77 1014.6
20260507020953 7 2 0.0 0.0 0.00 1.35 1.35 78 1014.6
20260507020450 7 2 0.0 0.0 0.00 1.35 1.35 77 1014.6
20260507015947 7 2 0.0 0.0 0.00 1.35 1.35 74 1014.7
20260507015445 7 2 0.0 3.2 0.00 1.35 1.35 71 1014.4
20260507014942 8 2 0.0 0.0 0.00 1.35 1.35 71 1014.3
20260507014439 8 2 0.0 0.0 0.00 1.35 1.35 72 1014.5
20260507013935 8 2 1.6 3.2 0.00 1.35 1.35 71 1014.3
20260507013432 8 2 1.6 3.2 0.00 1.35 1.35 72 1014.3
20260507012929 8 2 3.2 4.8 0.00 1.35 1.35 72 1014.3
20260507012425 8 3 3.2 4.8 0.00 1.35 1.35 70 1014.2
20260507011917 8 3 4.8 4.8 0.00 1.35 1.35 71 1014.1
20260507011414 8 2 4.8 4.8 0.00 1.35 1.35 69 1014.3
20260507010913 8 2 1.6 3.2 0.00 1.35 1.35 70 1014.3
20260507010409 8 357 3.2 4.8 0.00 1.35 1.35 70 1014.4
20260507005907 8 356 0.0 0.0 0.00 1.35 1.35 69 1014.5
20260507005403 8 342 0.0 3.2 0.00 1.35 1.35 67 1014.6
20260507004900 8 347 3.2 4.8 0.00 1.35 1.35 68 1014.4
20260507004357 8 357 0.0 3.2 0.00 1.35 1.35 69 1014.6
20260507003854 8 356 3.2 4.8 0.00 1.35 1.35 67 1014.3
20260507003349 8 38 4.8 8.0 0.00 1.35 1.35 65 1014.6
20260507002845 8 348 3.2 4.8 0.00 1.35 1.35 67 1014.5
20260507002341 9 356 1.6 3.2 0.00 1.35 1.35 69 1014.4
20260507001838 9 23 1.6 3.2 0.00 1.35 1.35 66 1014.2
20260507001335 9 345 3.2 4.8 0.00 1.35 1.35 67 1014.3
20260507000832 9 345 3.2 8.0 0.00 1.35 1.35 69 1014.5
20260507000328 9 348 6.4 9.7 0.00 1.35 1.35 69 1014.5
20260506235824 10 341 3.2 4.8 0.00 1.35 1.35 69 1014.6
20260506235320 10 334 3.2 4.8 0.00 1.35 1.35 68 1014.6
20260506234817 10 349 3.2 4.8 0.00 1.35 1.35 68 1014.5
20260506234315 10 350 1.6 3.2 0.00 1.35 1.35 68 1014.2
20260506233812 10 350 0.0 3.2 0.00 1.35 1.35 68 1014.1
20260506233307 10 343 4.8 8.0 0.00 1.35 1.35 67 1014.2
20260506232804 10 329 8.0 9.7 0.00 1.35 1.35 66 1014.0
20260506232259 10 345 8.0 9.7 0.00 1.35 1.35 66 1013.7